Location: Unspecified
(0.0000°N, 0.0000°E)
Time: 18:40:48
(UTC+00:00)

TRS 6 - Pass Details

Date: 24 February 2019
Orbit: 3561 x 3726 km, 87.3° (Epoch: 18 October)

Event Time Altitude Azimuth Distance (km) Brightness Sun altitude
Rises 18:15:12 0° 165° (SSE) 7,712 ? -0.5°
Reaches altitude 10° 18:19:51 10° 160° (SSE) 6,696 ? -1.6°
Maximum altitude 18:38:05 53° 86° (E) 4,203 ? -6.1°
Drops below altitude 10° 18:56:21 10° 14° (NNE) 6,794 ? -10.6°
Sets 19:00:58 0° 10° (N) 7,831 ? -11.8°
